Starlink 30847

operational
NORAD ID: 58239 Int'l Des: 2023-171 Owner: SPXS Country: US Constellation: starlink
LEOCIRCULAR

About Starlink 30847

Description loading...

Live Position

Loading 3D Globe...

Upcoming Passes

Altitude History

Altitude vs Time

uPlot chart will show altitude changes over time

Two-Line Element Set

1 58239U 23171K 26020.17599130 .00001272 00000-0 10923-3 0 9996
2 58239 43.0021 189.9572 0001283 265.5240 94.5456 15.02541951122425
Epoch: Jan 20, 2026 • Age: 26 hours

Current Status

Altitude 562.5 km
Velocity 7.59 km/s
Sub-Earth Point 40.82°N, 39.46°E
Launch Date Nov 8, 2023
Age 2.2 years
Type internet

Technical Details

Classification Payload
Mass 730.00 kg
Dry Mass 700.00 kg
Total Mass 730.00 kg
Length 0.30 m
Diameter 4.10 m
Span 29.00 m
Shape Box + pan
Manufacturer SPXS
Bus Type Starlink V2M
Phase Status In Orbit
Owner/State SPXS/US

Large Constellations

Loading constellations...